Regional Weather Roundup
Issued by NWS

Home | Current Version | Previous Version | Graphics & Text | Print | Product List | Glossary On
Versions: 1 2 3 4 5 6 7 8 9 10 11 12 13 14 15 16 17 18 19 20 21 22 23 24 25 26 27 28 29 30 31 32 33 34 35 36 37 38 39 40 41 42 43 44 45 46 47 48 49 50
000
ASUS45 KBOI 241310
RWRID

IDAHO REGIONAL WEATHER ROUNDUP
NATIONAL WEATHER SERVICE BOISE ID
700 AM MDT MON APR 24 2017

NOTE: "FAIR" INDICATES FEW OR NO CLOUDS BELOW 12000 FEET
WITH NO SIGNIFICANT WEATHER AND/OR OBSTRUCTIONS TO VISIBILITY

IDZ012-014-241400-
SOUTHWEST IDAHO


CITY           SKY/WX    TMP DP  RH WIND       PRES   REMARKS
BOISE          LGT RAIN  48  42  80 S8        29.70F
CALDWELL       LGT RAIN  48  41  76 W5        29.72R
MOUNTAIN HOME  CLOUDY    47  46  97 W5        29.71R
$$

IDZ016-017-241400-
SOUTHCENTRAL IDAHO


CITY           SKY/WX    TMP DP  RH WIND       PRES   REMARKS
BURLEY         CLOUDY    43  38  82 CALM      29.69F
JEROME         CLOUDY    45  41  86 SE6       29.71F
TWIN FALLS     LGT RAIN  43  39  86 S3        29.71F
$$

IDZ019>023-241400-
SOUTHEAST IDAHO


CITY           SKY/WX    TMP DP  RH WIND       PRES   REMARKS
IDAHO FALLS    LGT RAIN  45  37  73 S13       29.73S
POCATELLO      CLOUDY    45  37  73 W7        29.73S
REXBURG        CLOUDY    43  36  76 SW8       29.70S
$$

IDZ006-010-011-018-031-032-241400-
CENTRAL IDAHO MOUNTAINS


CITY           SKY/WX    TMP DP  RH WIND       PRES   REMARKS
MCCALL         LGT RAIN  35  33  92 CALM      29.66F
HAILEY         PTCLDY    39  34  81 NW3       29.71F
STANLEY          N/A     33  32  96 CALM      29.71F
SALMON         CLOUDY    36  34  93 CALM      29.70F
CHALLIS        CLOUDY    38  36  92 S6        29.70F WCI  33
$$

IDZ002-004-006-007-026-241400-
NORTHERN IDAHO


CITY           SKY/WX    TMP DP  RH WIND       PRES   REMARKS
LEWISTON       LGT RAIN  46  45  96 NE6       29.73F
LOWELL           N/A     45  42  89 CALM      29.76F
COEUR D`ALENE  CLOUDY    43  38  82 S9        29.71S
MULLAN PASS    SNOW      30  28  92 CALM      29.66F VSB 1/4
$$



USA.gov is the U.S. government's official web portal to all federal, state and local government web resources and services.